[TLELIST] Archives

 

Current TLEs

March 15th 2007 PDT

HST 1 20580U 90037B 07074.20688371 .00000445 00000-0 21747-4 0 8297 2 20580 028.4664 082.9307 0003830 177.1961 182.8649 15.00205722725839 ISS (ZARYA) 1 25544U 98067A 07074.46804565 .00021586 00000-0 11882-3 0 8248 2 25544 051.6322 228.2030 0020640 320.8161 093.9623 15.79362962475975 CXO 1 25867U 99040B 07075.08333333 .00000396 00000-0 00000+0 0 465 2 25867 061.3262 091.3233 6106266 285.6683 354.9821 00.37805976 1903 ____________________________________________________________________ These 2-Line ...Continue Reading

Current TLEs

March 14th 2007 PDT

HST 1 20580U 90037B 07072.87635058 .00000432 00000-0 20715-4 0 8281 2 20580 028.4661 091.6048 0003843 163.0874 196.9843 15.00204877725636 ISS (ZARYA) 1 25544U 98067A 07073.45474503 .00021567 00000-0 11895-3 0 8176 2 25544 051.6326 233.4491 0020762 316.9167 092.6959 15.79316462475810 CXO 1 25867U 99040B 07072.45833333 .00000369 00000-0 00000+0 0 457 2 25867 061.3118 091.3756 6101066 285.7060 357.6202 00.37804449 1891 ____________________________________________________________________ These 2-Line ...Continue Reading

Current TLEs

March 13th 2007 PDT

HST 1 20580U 90037B 07070.88054899 +.00000433 +00000-0 +20840-4 0 08390 2 20580 028.4658 104.6171 0003889 143.4968 216.5881 15.00203791725332 ISS (ZARYA) 1 25544U 98067A 07072.44092633 .00019276 00000-0 10701-3 0 8106 2 25544 051.6327 238.6960 0020661 312.6535 089.0255 15.79267155475654 CXO 1 25867U 99040B 07072.45833333 .00000369 00000-0 00000+0 0 457 2 25867 061.3118 091.3756 6101066 285.7060 357.6202 00.37804449 1891 ____________________________________________________________________ These 2-Line ...Continue Reading

Current TLEs

March 12th 2007 PDT

HST 1 20580U 90037B 07069.88264738 +.00000435 +00000-0 +20995-4 0 08475 2 20580 028.4657 111.1226 0003903 133.6022 226.4883 15.00203258725187 ISS (ZARYA) 1 25544U 98067A 07071.49014816 .00017262 00000-0 96466-4 0 8035 2 25544 051.6331 243.6150 0020479 308.3958 084.1605 15.79224042475501 CXO 1 25867U 99040B 07069.79166667 .00000347 00000-0 00000+0 0 444 2 25867 061.2975 091.4230 6096108 285.7624 354.5559 00.37805408 1881 ____________________________________________________________________ These 2-Line ...Continue Reading

Current TLEs

March 11th 2007 PDT

HST 1 20580U 90037B 07070.21528130 .00000441 00000-0 21440-4 0 8263 2 20580 028.4657 108.9542 0003895 137.1909 222.8982 15.00203484725232 ISS (ZARYA) 1 25544U 98067A 07070.48021473 .00017154 00000-0 96038-4 0 7966 2 25544 051.6333 248.8428 0020511 304.2868 102.7634 15.79187553475346 CXO 1 25867U 99040B 07069.79166667 .00000347 00000-0 00000+0 0 444 2 25867 061.2975 091.4230 6096108 285.7624 354.5559 00.37805408 1881 ____________________________________________________________________ These 2-Line ...Continue Reading

Current TLEs

March 10th 2007 PDT

HST 1 20580U 90037B 07068.88474513 .00000438 00000-0 21210-4 0 8258 2 20580 028.4655 117.6275 0003880 123.6711 236.4237 15.00202702725039 ISS (ZARYA) 1 25544U 98067A 07069.53130442 .00017790 00000-0 99587-4 0 7897 2 25544 051.6337 253.7549 0020532 300.7641 108.0659 15.79156039475196 CXO 1 25867U 99040B 07069.79166667 .00000347 00000-0 00000+0 0 444 2 25867 061.2975 091.4230 6096108 285.7624 354.5559 00.37805408 1881 ____________________________________________________________________ These 2-Line ...Continue Reading

Current TLEs

March 9th 2007 PDT

HST 1 20580U 90037B 07066.95546546 +.00000488 +00000-0 +25096-4 0 08442 2 20580 028.4650 130.2034 0003794 103.7107 256.3897 15.00201926724747 ISS (ZARYA) 1 25544U 98067A 07068.51753068 .00022485 00000-0 12497-3 0 7823 2 25544 051.6344 258.9995 0020274 296.2882 105.4612 15.79129608475030 CXO 1 25867U 99040B 07067.16666667 .00000316 00000-0 00000+0 0 433 2 25867 061.2837 091.4601 6091863 285.8305 357.1477 00.37805836 1872 ____________________________________________________________________ These 2-Line ...Continue Reading

Current TLEs

March 8th 2007 PDT

HST 1 20580U 90037B 07067.48768102 .00000459 00000-0 22876-4 0 8244 2 20580 028.4654 126.7344 0003861 109.9750 250.1254 15.00202076724827 ISS (ZARYA) 1 25544U 98067A 07067.30438657 .00018331 00000-0 10299-3 0 7770 2 25544 051.6351 265.2773 0020105 291.7935 048.8200 15.79061114474832 CXO 1 25867U 99040B 07067.16666667 .00000316 00000-0 00000+0 0 433 2 25867 061.2837 091.4601 6091863 285.8305 357.1477 00.37805836 1872 ____________________________________________________________________ These 2-Line ...Continue Reading

Current TLEs

March 7th 2007 PDT

HST 1 20580U 90037B 07066.22367173 .00000451 00000-0 22190-4 0 8238 2 20580 028.4672 134.9810 0004085 096.5441 263.5615 15.00201420724633 ISS (ZARYA) 1 25544U 98067A 07066.29361111 .00015407 00000-0 87385-4 0 7713 2 25544 051.6342 270.5069 0020294 287.3071 063.5764 15.79010797474672 CXO 1 25867U 99040B 07067.16666667 .00000316 00000-0 00000+0 0 433 2 25867 061.2837 091.4601 6091863 285.8305 357.1477 00.37805836 1872 ____________________________________________________________________ These 2-Line ...Continue Reading

Current TLEs

March 6th 2007 PDT

HST 1 20580U 90037B 07065.02618669 .00000472 00000-0 23899-4 0 8223 2 20580 028.4669 142.7893 0004124 084.4013 275.7046 15.00200991724457 ISS (ZARYA) 1 25544U 98067A 07065.48830156 .00014957 00000-0 85056-4 0 7658 2 25544 051.6350 274.6735 0020327 284.4244 165.6551 15.78982831474554 CXO 1 25867U 99040B 07064.54166667 .00000272 00000-0 00000+0 0 427 2 25867 061.2700 091.5067 6088581 285.8905 359.7058 00.37805817 1868 ____________________________________________________________________ These 2-Line ...Continue Reading
  • This mailing list is a public mailing list - anyone may join or leave, at any time.
  • This mailing list is announce-only.

International Space Station (ISS) / Hubble Space Telescope (HST) / Chandra X-Ray Observatory Orbital Data via EMAIL

Privacy Policy:

Private list